| time (UTC) | temp C | wind direction | speed KPH | gust KPH | rain 1hr cm | rain 24hr cm | rain mn cm | humidity % | barometer mb |
| 20260506092847 | 10 | 2 | 3.2 | 9.7 | 0.00 | 0.00 | 0.00 | 80 | 1014.4 |
| 20260506092345 | 10 | 86 | 4.8 | 4.8 | 0.00 | 0.00 | 0.00 | 79 | 1014.1 |
| 20260506091841 | 10 | 336 | 8.0 | 11.3 | 0.00 | 0.00 | 0.00 | 79 | 1013.8 |
| 20260506091339 | 10 | 37 | 4.8 | 4.8 | 0.00 | 0.00 | 0.00 | 79 | 1014.0 |
| 20260506090836 | 10 | 337 | 3.2 | 4.8 | 0.00 | 0.00 | 0.00 | 79 | 1013.9 |
| 20260506090334 | 10 | 328 | 6.4 | 9.7 | 0.00 | 0.00 | 0.00 | 79 | 1013.8 |
| 20260506085830 | 10 | 356 | 3.2 | 3.2 | 0.00 | 0.00 | 0.00 | 79 | 1013.7 |
| 20260506085326 | 10 | 352 | 3.2 | 4.8 | 0.00 | 0.00 | 0.00 | 79 | 1013.8 |
| 20260506084823 | 10 | 255 | 1.6 | 3.2 | 0.00 | 0.00 | 0.00 | 79 | 1013.7 |
| 20260506084320 | 11 | 331 | 3.2 | 4.8 | 0.00 | 0.00 | 0.00 | 79 | 1013.7 |
| 20260506083817 | 11 | 25 | 3.2 | 6.4 | 0.00 | 0.00 | 0.00 | 78 | 1013.5 |
| 20260506083314 | 11 | 190 | 3.2 | 3.2 | 0.00 | 0.00 | 0.00 | 78 | 1013.4 |
| 20260506082812 | 11 | 356 | 3.2 | 3.2 | 0.00 | 0.00 | 0.00 | 78 | 1013.4 |
| 20260506082308 | 11 | 295 | 3.2 | 4.8 | 0.00 | 0.00 | 0.00 | 78 | 1013.3 |
| 20260506081805 | 11 | 348 | 3.2 | 3.2 | 0.00 | 0.00 | 0.00 | 77 | 1013.6 |
| 20260506081302 | 11 | 259 | 6.4 | 6.4 | 0.00 | 0.00 | 0.00 | 77 | 1013.4 |
| 20260506080800 | 11 | 326 | 3.2 | 4.8 | 0.00 | 0.00 | 0.00 | 77 | 1013.2 |
| 20260506080256 | 11 | 55 | 3.2 | 3.2 | 0.00 | 0.00 | 0.00 | 78 | 1013.5 |
| 20260506073240 | 11 | 306 | 4.8 | 6.4 | 0.00 | 0.00 | 0.00 | 78 | 1013.4 |
| 20260506072737 | 11 | 331 | 6.4 | 6.4 | 0.00 | 0.00 | 0.00 | 78 | 1013.4 |
| 20260506072235 | 11 | 287 | 3.2 | 3.2 | 0.00 | 0.00 | 0.00 | 77 | 1013.2 |
| 20260506071732 | 11 | 29 | 3.2 | 4.8 | 0.00 | 0.00 | 0.00 | 77 | 1013.1 |
| 20260506071230 | 11 | 7 | 1.6 | 1.6 | 0.00 | 0.00 | 0.00 | 77 | 1013.4 |
| 20260506070727 | 11 | 0 | 4.8 | 6.4 | 0.00 | 0.00 | 0.00 | 77 | 1013.0 |
| 20260506070224 | 11 | 351 | 3.2 | 3.2 | 0.00 | 0.00 | 0.00 | 78 | 1013.2 |
| 20260506062200 | 11 | 14 | 4.8 | 9.7 | 0.00 | 0.00 | 0.00 | 78 | 1012.5 |
| 20260506061656 | 11 | 327 | 1.6 | 3.2 | 0.00 | 0.00 | 0.00 | 78 | 1012.7 |
| 20260506061154 | 11 | 46 | 6.4 | 9.7 | 0.00 | 0.00 | 0.00 | 78 | 1013.0 |
| 20260506060653 | 11 | 311 | 6.4 | 6.4 | 0.00 | 0.00 | 0.00 | 78 | 1012.9 |
| 20260506060149 | 11 | 79 | 3.2 | 4.8 | 0.00 | 0.00 | 0.00 | 78 | 1012.9 |
| 20260506051121 | 12 | 4 | 4.8 | 6.4 | 0.00 | 0.00 | 0.00 | 77 | 1012.8 |
| 20260506050619 | 12 | 37 | 4.8 | 9.7 | 0.00 | 0.00 | 0.00 | 77 | 1012.9 |
| 20260506050116 | 12 | 48 | 4.8 | 6.4 | 0.00 | 0.00 | 0.00 | 77 | 1013.0 |
| 20260506045109 | 12 | 323 | 6.4 | 6.4 | 0.00 | 0.00 | 0.00 | 77 | 1013.0 |
| 20260506044607 | 12 | 330 | 6.4 | 6.4 | 0.00 | 0.00 | 0.00 | 77 | 1012.9 |
| 20260506044104 | 12 | 340 | 6.4 | 11.3 | 0.00 | 0.00 | 0.00 | 77 | 1013.1 |
| 20260506043601 | 12 | 303 | 4.8 | 11.3 | 0.00 | 0.00 | 0.00 | 77 | 1012.9 |
| 20260506043059 | 12 | 2 | 4.8 | 6.4 | 0.00 | 0.00 | 0.00 | 77 | 1013.0 |
| 20260506042558 | 12 | 39 | 6.4 | 11.3 | 0.00 | 0.00 | 0.00 | 77 | 1013.2 |
| 20260506042056 | 12 | 17 | 4.8 | 6.4 | 0.00 | 0.00 | 0.00 | 78 | 1013.1 |
| 20260506041554 | 12 | 356 | 4.8 | 4.8 | 0.00 | 0.00 | 0.00 | 78 | 1013.2 |
| 20260506041050 | 12 | 303 | 4.8 | 4.8 | 0.00 | 0.00 | 0.00 | 78 | 1013.0 |
| 20260506040549 | 12 | 15 | 4.8 | 4.8 | 0.00 | 0.00 | 0.00 | 78 | 1013.2 |
| 20260506040044 | 12 | 46 | 4.8 | 6.4 | 0.00 | 0.00 | 0.00 | 78 | 1012.9 |
| 20260506035542 | 12 | 12 | 6.4 | 11.3 | 0.00 | 0.00 | 0.00 | 78 | 1012.8 |
| 20260506035038 | 12 | 36 | 3.2 | 4.8 | 0.00 | 0.00 | 0.00 | 78 | 1012.8 |
| 20260506034536 | 12 | 21 | 3.2 | 4.8 | 0.00 | 0.00 | 0.00 | 78 | 1012.9 |
| 20260506034032 | 12 | 333 | 6.4 | 6.4 | 0.00 | 0.00 | 0.00 | 78 | 1013.1 |
| 20260506033530 | 12 | 20 | 4.8 | 6.4 | 0.00 | 0.00 | 0.00 | 78 | 1013.0 |
| 20260506033027 | 12 | 99 | 3.2 | 3.2 | 0.00 | 0.00 | 0.00 | 79 | 1013.0 |
| 20260506032524 | 12 | 341 | 3.2 | 3.2 | 0.00 | 0.00 | 0.00 | 79 | 1013.1 |
| 20260506032020 | 12 | 352 | 8.0 | 9.7 | 0.00 | 0.00 | 0.00 | 78 | 1013.1 |
| 20260506031518 | 12 | 321 | 3.2 | 3.2 | 0.00 | 0.00 | 0.00 | 79 | 1012.9 |
| 20260506031015 | 12 | 327 | 1.6 | 3.2 | 0.00 | 0.00 | 0.00 | 79 | 1012.9 |
| 20260506030513 | 12 | 341 | 4.8 | 6.4 | 0.00 | 0.00 | 0.00 | 79 | 1012.6 |
| 20260506030010 | 13 | 331 | 6.4 | 6.4 | 0.00 | 0.00 | 0.00 | 79 | 1012.5 |
| 20260506025507 | 13 | 352 | 4.8 | 6.4 | 0.00 | 0.00 | 0.00 | 79 | 1012.4 |
| 20260506025003 | 13 | 21 | 3.2 | 3.2 | 0.00 | 0.00 | 0.00 | 80 | 1012.3 |
| 20260506024500 | 13 | 343 | 8.0 | 11.3 | 0.00 | 0.00 | 0.00 | 80 | 1012.3 |
| 20260506023956 | 13 | 119 | 3.2 | 4.8 | 0.00 | 0.00 | 0.00 | 80 | 1012.3 |
| 20260506023453 | 13 | 354 | 3.2 | 3.2 | 0.00 | 0.00 | 0.00 | 80 | 1011.6 |
| 20260506022949 | 13 | 25 | 3.2 | 3.2 | 0.00 | 0.00 | 0.00 | 80 | 1011.3 |
| 20260506022447 | 13 | 106 | 1.6 | 3.2 | 0.00 | 0.00 | 0.00 | 80 | 1011.4 |
| 20260506021945 | 13 | 347 | 3.2 | 4.8 | 0.00 | 0.00 | 0.00 | 80 | 1011.1 |
| 20260506021442 | 13 | 322 | 4.8 | 6.4 | 0.00 | 0.00 | 0.00 | 80 | 1010.9 |
| 20260506020939 | 13 | 52 | 8.0 | 11.3 | 0.00 | 0.00 | 0.00 | 80 | 1011.0 |
| 20260506020437 | 13 | 173 | 3.2 | 4.8 | 0.00 | 0.00 | 0.00 | 80 | 1010.2 |
| 20260506015934 | 13 | 306 | 9.7 | 11.3 | 0.00 | 0.00 | 0.00 | 80 | 1010.2 |
| 20260506015431 | 14 | 102 | 6.4 | 9.7 | 0.00 | 0.00 | 0.00 | 80 | 1010.2 |
| 20260506014928 | 14 | 26 | 8.0 | 9.7 | 0.00 | 0.00 | 0.00 | 80 | 1010.2 |
| 20260506014425 | 14 | 5 | 6.4 | 6.4 | 0.00 | 0.00 | 0.00 | 80 | 1010.0 |
| 20260506013921 | 14 | 352 | 4.8 | 6.4 | 0.00 | 0.00 | 0.00 | 80 | 1010.2 |
| 20260506013420 | 15 | 99 | 6.4 | 11.3 | 0.00 | 0.00 | 0.00 | 79 | 1009.9 |
| 20260506012916 | 15 | 202 | 4.8 | 6.4 | 0.00 | 0.00 | 0.00 | 79 | 1010.0 |
| 20260506012412 | 15 | 351 | 6.4 | 6.4 | 0.00 | 0.00 | 0.00 | 79 | 1009.6 |
| 20260506011909 | 15 | 276 | 4.8 | 6.4 | 0.00 | 0.00 | 0.00 | 78 | 1009.8 |
| 20260506011406 | 15 | 44 | 6.4 | 11.3 | 0.00 | 0.00 | 0.00 | 78 | 1009.7 |
| 20260506010903 | 15 | 285 | 8.0 | 11.3 | 0.00 | 0.00 | 0.00 | 78 | 1009.4 |
| 20260506010402 | 16 | 289 | 6.4 | 12.9 | 0.00 | 0.00 | 0.00 | 77 | 1009.5 |
| 20260506005858 | 16 | 351 | 6.4 | 9.7 | 0.00 | 0.00 | 0.00 | 77 | 1009.4 |
| 20260506005355 | 16 | 303 | 3.2 | 3.2 | 0.00 | 0.00 | 0.00 | 77 | 1009.2 |
| 20260506004851 | 16 | 311 | 6.4 | 6.4 | 0.00 | 0.00 | 0.00 | 77 | 1009.2 |
| 20260506004349 | 16 | 316 | 3.2 | 4.8 | 0.00 | 0.00 | 0.00 | 77 | 1009.6 |
| 20260506003845 | 16 | 75 | 3.2 | 4.8 | 0.00 | 0.00 | 0.00 | 77 | 1009.5 |
| 20260506003341 | 16 | 90 | 4.8 | 6.4 | 0.00 | 0.00 | 0.00 | 76 | 1009.4 |
| 20260506002838 | 16 | 282 | 8.0 | 9.7 | 0.00 | 0.00 | 0.00 | 76 | 1009.2 |
| 20260506002334 | 17 | 268 | 4.8 | 4.8 | 0.00 | 0.00 | 0.00 | 75 | 1008.9 |
| 20260506001829 | 17 | 95 | 4.8 | 6.4 | 0.00 | 0.00 | 0.00 | 76 | 1009.3 |
| 20260506001327 | 17 | 354 | 4.8 | 4.8 | 0.00 | 0.00 | 0.00 | 75 | 1009.4 |
| 20260506000824 | 17 | 310 | 4.8 | 9.7 | 0.00 | 0.00 | 0.00 | 75 | 1009.3 |
| 20260506000323 | 17 | 332 | 9.7 | 11.3 | 0.00 | 0.00 | 0.00 | 74 | 1009.0 |
| 20260505235818 | 17 | 309 | 3.2 | 6.4 | 0.00 | 0.00 | 0.00 | 74 | 1009.1 |
| 20260505235316 | 17 | 32 | 6.4 | 6.4 | 0.00 | 0.00 | 0.00 | 74 | 1008.9 |
| 20260505234813 | 17 | 0 | 6.4 | 6.4 | 0.00 | 0.00 | 0.00 | 74 | 1008.5 |
| 20260505234310 | 18 | 20 | 6.4 | 9.7 | 0.00 | 0.00 | 0.00 | 73 | 1008.7 |
| 20260505233807 | 18 | 325 | 8.0 | 9.7 | 0.00 | 0.00 | 0.00 | 74 | 1008.8 |
| 20260505233305 | 18 | 329 | 3.2 | 3.2 | 0.00 | 0.00 | 0.00 | 74 | 1008.9 |
| 20260505232802 | 18 | 279 | 4.8 | 6.4 | 0.00 | 0.00 | 0.00 | 73 | 1009.2 |
| 20260505232259 | 18 | 265 | 3.2 | 4.8 | 0.00 | 0.00 | 0.00 | 74 | 1009.0 |
| 20260505231755 | 18 | 289 | 11.3 | 14.5 | 0.00 | 0.00 | 0.00 | 74 | 1008.7 |
| 20260505231254 | 18 | 311 | 6.4 | 9.7 | 0.00 | 0.00 | 0.00 | 73 | 1008.8 |
| 20260505230752 | 18 | 347 | 4.8 | 9.7 | 0.00 | 0.00 | 0.00 | 73 | 1008.8 |
| 20260505230249 | 18 | 41 | 3.2 | 3.2 | 0.00 | 0.00 | 0.00 | 73 | 1008.9 |
| 20260505225745 | 19 | 216 | 6.4 | 9.7 | 0.00 | 0.00 | 0.00 | 72 | 1008.8 |
| 20260505225243 | 19 | 349 | 6.4 | 6.4 | 0.00 | 0.00 | 0.00 | 72 | 1008.5 |
| 20260505224737 | 20 | 278 | 3.2 | 4.8 | 0.00 | 0.00 | 0.00 | 72 | 1008.8 |
| 20260505224235 | 20 | 313 | 4.8 | 4.8 | 0.00 | 0.00 | 0.00 | 72 | 1008.6 |
| 20260505223733 | 20 | 0 | 8.0 | 11.3 | 0.00 | 0.00 | 0.00 | 71 | 1008.6 |
| 20260505223229 | 20 | 342 | 6.4 | 6.4 | 0.00 | 0.00 | 0.00 | 71 | 1008.6 |
| 20260505222725 | 20 | 356 | 4.8 | 6.4 | 0.00 | 0.00 | 0.00 | 71 | 1008.6 |
| 20260505222221 | 20 | 322 | 4.8 | 4.8 | 0.00 | 0.00 | 0.00 | 70 | 1008.6 |
| 20260505221719 | 20 | 327 | 3.2 | 6.4 | 0.00 | 0.00 | 0.00 | 70 | 1008.6 |
| 20260505221215 | 20 | 329 | 4.8 | 6.4 | 0.00 | 0.00 | 0.00 | 70 | 1008.4 |
| 20260505220712 | 21 | 269 | 6.4 | 9.7 | 0.00 | 0.00 | 0.00 | 70 | 1008.3 |
| 20260505220210 | 21 | 339 | 3.2 | 4.8 | 0.00 | 0.00 | 0.00 | 71 | 1008.1 |
| 20260505215708 | 21 | 313 | 6.4 | 11.3 | 0.00 | 0.00 | 0.00 | 69 | 1008.0 |
| 20260505215205 | 21 | 190 | 3.2 | 3.2 | 0.00 | 0.00 | 0.00 | 70 | 1008.1 |
| 20260505214703 | 21 | 264 | 6.4 | 9.7 | 0.00 | 0.00 | 0.00 | 70 | 1008.0 |
| 20260505214200 | 21 | 3 | 6.4 | 9.7 | 0.00 | 0.00 | 0.00 | 70 | 1008.1 |
| 20260505213657 | 22 | 318 | 4.8 | 6.4 | 0.00 | 0.00 | 0.00 | 69 | 1007.7 |
| 20260505213154 | 22 | 304 | 4.8 | 4.8 | 0.00 | 0.00 | 0.00 | 67 | 1007.9 |
| 20260505212650 | 22 | 15 | 3.2 | 3.2 | 0.00 | 0.00 | 0.00 | 68 | 1007.6 |
| 20260505212148 | 22 | 303 | 6.4 | 11.3 | 0.00 | 0.00 | 0.00 | 68 | 1007.7 |
| 20260505211645 | 22 | 327 | 8.0 | 9.7 | 0.00 | 0.00 | 0.00 | 68 | 1007.8 |
| 20260505211142 | 22 | 36 | 3.2 | 4.8 | 0.00 | 0.00 | 0.00 | 69 | 1007.8 |
| 20260505210638 | 22 | 347 | 8.0 | 12.9 | 0.00 | 0.00 | 0.00 | 68 | 1008.0 |
| 20260505210135 | 22 | 48 | 6.4 | 6.4 | 0.00 | 0.00 | 0.00 | 69 | 1007.9 |
| 20260505205633 | 22 | 354 | 4.8 | 4.8 | 0.00 | 0.00 | 0.00 | 69 | 1008.1 |
| 20260505205131 | 22 | 348 | 6.4 | 11.3 | 0.00 | 0.00 | 0.00 | 68 | 1008.0 |
| 20260505204627 | 23 | 270 | 6.4 | 11.3 | 0.00 | 0.00 | 0.00 | 68 | 1008.0 |
| 20260505204125 | 23 | 330 | 3.2 | 4.8 | 0.00 | 0.00 | 0.00 | 67 | 1008.0 |
| 20260505203621 | 23 | 325 | 4.8 | 6.4 | 0.00 | 0.00 | 0.00 | 66 | 1008.0 |
| 20260505203119 | 24 | 305 | 8.0 | 11.3 | 0.00 | 0.00 | 0.00 | 65 | 1007.9 |
| 20260505202614 | 25 | 356 | 8.0 | 11.3 | 0.00 | 0.00 | 0.00 | 64 | 1007.7 |
| 20260505202111 | 25 | 300 | 8.0 | 12.9 | 0.00 | 0.00 | 0.00 | 64 | 1007.4 |
| 20260505201607 | 25 | 310 | 1.6 | 3.2 | 0.00 | 0.00 | 0.00 | 67 | 1007.7 |
| 20260505201105 | 25 | 333 | 6.4 | 11.3 | 0.00 | 0.00 | 0.00 | 64 | 1007.9 |
| 20260505200603 | 24 | 349 | 8.0 | 12.9 | 0.00 | 0.00 | 0.00 | 65 | 1007.7 |
| 20260505200059 | 25 | 164 | 3.2 | 3.2 | 0.00 | 0.00 | 0.00 | 65 | 1007.7 |
| 20260505195555 | 25 | 187 | 8.0 | 14.5 | 0.00 | 0.00 | 0.00 | 64 | 1007.6 |
| 20260505195053 | 25 | 201 | 1.6 | 3.2 | 0.00 | 0.00 | 0.00 | 64 | 1007.7 |
| 20260505194550 | 26 | 345 | 6.4 | 9.7 | 0.00 | 0.00 | 0.00 | 62 | 1007.7 |
| 20260505194046 | 25 | 356 | 3.2 | 4.8 | 0.00 | 0.00 | 0.00 | 63 | 1007.3 |
| 20260505193543 | 26 | 158 | 1.6 | 3.2 | 0.00 | 0.00 | 0.00 | 62 | 1007.2 |
| 20260505193040 | 26 | 224 | 1.6 | 1.6 | 0.00 | 0.00 | 0.00 | 59 | 1007.3 |
| 20260505192539 | 26 | 150 | 4.8 | 9.7 | 0.00 | 0.00 | 0.00 | 57 | 1007.2 |
| 20260505192036 | 26 | 330 | 4.8 | 11.3 | 0.00 | 0.00 | 0.00 | 57 | 1007.1 |
| 20260505191534 | 26 | 243 | 6.4 | 12.9 | 0.00 | 0.00 | 0.00 | 58 | 1007.2 |
| 20260505191032 | 26 | 208 | 6.4 | 9.7 | 0.00 | 0.00 | 0.00 | 57 | 1007.1 |
| 20260505190532 | 26 | 135 | 3.2 | 4.8 | 0.00 | 0.00 | 0.00 | 55 | 1007.2 |
| 20260505190028 | 26 | 242 | 4.8 | 9.7 | 0.00 | 0.00 | 0.00 | 51 | 1007.1 |
| 20260505185525 | 26 | 229 | 4.8 | 6.4 | 0.00 | 0.00 | 0.00 | 50 | 1007.2 |
| 20260505185021 | 26 | 243 | 3.2 | 3.2 | 0.00 | 0.00 | 0.00 | 50 | 1007.0 |
| 20260505184518 | 26 | 347 | 3.2 | 4.8 | 0.00 | 0.00 | 0.00 | 49 | 1007.0 |
| 20260505184015 | 26 | 155 | 1.6 | 1.6 | 0.00 | 0.00 | 0.00 | 46 | 1006.8 |
| 20260505183512 | 26 | 348 | 1.6 | 1.6 | 0.00 | 0.00 | 0.00 | 49 | 1006.6 |
| 20260505183009 | 26 | 329 | 3.2 | 4.8 | 0.00 | 0.00 | 0.00 | 48 | 1006.8 |
| 20260505182506 | 26 | 343 | 4.8 | 11.3 | 0.00 | 0.00 | 0.00 | 47 | 1006.4 |
| 20260505182002 | 27 | 192 | 4.8 | 4.8 | 0.00 | 0.00 | 0.00 | 46 | 1006.3 |
| 20260505181459 | 28 | 183 | 1.6 | 1.6 | 0.00 | 0.00 | 0.00 | 52 | 1006.1 |
| 20260505180956 | 28 | 165 | 6.4 | 12.9 | 0.00 | 0.00 | 0.00 | 52 | 1006.2 |
| 20260505180452 | 28 | 219 | 9.7 | 11.3 | 0.00 | 0.00 | 0.00 | 54 | 1006.3 |
| 20260505175949 | 28 | 222 | 3.2 | 4.8 | 0.00 | 0.00 | 0.00 | 55 | 1006.1 |
| 20260505175445 | 27 | 217 | 6.4 | 9.7 | 0.00 | 0.00 | 0.00 | 54 | 1006.2 |
| 20260505174942 | 28 | 203 | 4.8 | 6.4 | 0.00 | 0.00 | 0.00 | 55 | 1006.1 |
| 20260505174439 | 28 | 185 | 12.9 | 17.7 | 0.00 | 0.00 | 0.00 | 53 | 1006.1 |
| 20260505173935 | 28 | 233 | 6.4 | 9.7 | 0.00 | 0.00 | 0.00 | 55 | 1006.2 |
| 20260505173432 | 28 | 209 | 8.0 | 12.9 | 0.00 | 0.00 | 0.00 | 56 | 1006.0 |
| 20260505172929 | 28 | 286 | 12.9 | 20.9 | 0.00 | 0.00 | 0.00 | 55 | 1005.9 |
| 20260505172427 | 28 | 217 | 8.0 | 14.5 | 0.00 | 0.00 | 0.00 | 55 | 1005.9 |
| 20260505171926 | 29 | 104 | 3.2 | 4.8 | 0.00 | 0.00 | 0.00 | 56 | 1005.8 |
| 20260505171424 | 28 | 200 | 3.2 | 4.8 | 0.00 | 0.00 | 0.00 | 58 | 1006.0 |
| 20260505170920 | 27 | 345 | 3.2 | 6.4 | 0.00 | 0.00 | 0.00 | 60 | 1005.9 |
| 20260505170417 | 27 | 176 | 4.8 | 4.8 | 0.00 | 0.00 | 0.00 | 60 | 1006.0 |
| 20260505165912 | 27 | 195 | 6.4 | 9.7 | 0.00 | 0.00 | 0.00 | 57 | 1005.6 |
| 20260505165408 | 27 | 277 | 4.8 | 6.4 | 0.00 | 0.00 | 0.00 | 60 | 1005.5 |
| 20260505164903 | 27 | 188 | 9.7 | 12.9 | 0.00 | 0.00 | 0.00 | 63 | 1005.8 |
| 20260505164400 | 26 | 234 | 14.5 | 16.1 | 0.00 | 0.00 | 0.00 | 65 | 1005.9 |
| 20260505163859 | 26 | 200 | 4.8 | 6.4 | 0.00 | 0.00 | 0.00 | 68 | 1006.0 |
| 20260505163357 | 26 | 233 | 4.8 | 6.4 | 0.00 | 0.00 | 0.00 | 68 | 1005.7 |
| 20260505162855 | 26 | 227 | 6.4 | 9.7 | 0.00 | 0.00 | 0.00 | 67 | 1005.5 |
| 20260505162351 | 25 | 269 | 4.8 | 6.4 | 0.00 | 0.00 | 0.00 | 69 | 1005.6 |
| 20260505161848 | 25 | 172 | 3.2 | 3.2 | 0.00 | 0.00 | 0.00 | 70 | 1005.4 |
| 20260505161345 | 25 | 237 | 4.8 | 6.4 | 0.00 | 0.00 | 0.00 | 70 | 1005.4 |
| 20260505160843 | 25 | 226 | 16.1 | 20.9 | 0.00 | 0.00 | 0.00 | 69 | 1005.3 |
| 20260505160341 | 25 | 198 | 3.2 | 4.8 | 0.00 | 0.00 | 0.00 | 70 | 1005.2 |
| 20260505153320 | 25 | 209 | 9.7 | 12.9 | 0.00 | 0.00 | 0.00 | 71 | 1005.0 |
| 20260505152817 | 25 | 171 | 4.8 | 6.4 | 0.00 | 0.00 | 0.00 | 71 | 1004.8 |
| 20260505152314 | 24 | 249 | 9.7 | 12.9 | 0.00 | 0.00 | 0.00 | 72 | 1004.7 |
| 20260505151813 | 24 | 199 | 12.9 | 16.1 | 0.00 | 0.00 | 0.00 | 72 | 1004.9 |
| 20260505151311 | 24 | 166 | 9.7 | 11.3 | 0.00 | 0.00 | 0.00 | 73 | 1004.9 |
| 20260505150808 | 24 | 224 | 14.5 | 22.5 | 0.00 | 0.00 | 0.00 | 73 | 1004.9 |
| 20260505150305 | 24 | 182 | 4.8 | 6.4 | 0.00 | 0.00 | 0.00 | 73 | 1004.9 |
| 20260505140229 | 22 | 166 | 16.1 | 20.9 | 0.00 | 0.00 | 0.00 | 78 | 1004.6 |
| 20260505130153 | 21 | 229 | 12.9 | 17.7 | 0.00 | 0.00 | 0.00 | 79 | 1004.3 |
| 20260505124643 | 21 | 132 | 8.0 | 9.7 | 0.00 | 0.00 | 0.00 | 79 | 1004.2 |
| 20260505124139 | 21 | 220 | 12.9 | 14.5 | 0.00 | 0.00 | 0.00 | 80 | 1004.3 |
| 20260505123635 | 21 | 202 | 9.7 | 12.9 | 0.00 | 0.00 | 0.00 | 79 | 1004.2 |
| 20260505123132 | 21 | 202 | 9.7 | 20.9 | 0.00 | 0.00 | 0.00 | 79 | 1004.0 |
| 20260505122629 | 21 | 197 | 8.0 | 11.3 | 0.00 | 0.00 | 0.00 | 79 | 1004.0 |
| 20260505122126 | 21 | 188 | 8.0 | 9.7 | 0.00 | 0.00 | 0.00 | 79 | 1004.0 |
| 20260505121622 | 21 | 184 | 16.1 | 20.9 | 0.00 | 0.00 | 0.00 | 79 | 1004.0 |
| 20260505121119 | 21 | 310 | 11.3 | 16.1 | 0.00 | 0.00 | 0.00 | 80 | 1003.9 |
| 20260505120615 | 21 | 204 | 12.9 | 16.1 | 0.00 | 0.00 | 0.00 | 79 | 1003.9 |
| 20260505120111 | 21 | 170 | 11.3 | 14.5 | 0.00 | 0.00 | 0.00 | 79 | 1003.9 |
| 20260505115606 | 21 | 172 | 8.0 | 11.3 | 0.00 | 0.00 | 0.00 | 79 | 1003.8 |
| 20260505115104 | 20 | 182 | 12.9 | 17.7 | 0.00 | 0.00 | 0.00 | 80 | 1003.4 |
| 20260505114600 | 21 | 196 | 11.3 | 14.5 | 0.00 | 0.00 | 0.00 | 79 | 1003.6 |
| 20260505114057 | 21 | 236 | 11.3 | 14.5 | 0.00 | 0.00 | 0.00 | 79 | 1003.5 |
| 20260505113553 | 21 | 186 | 9.7 | 16.1 | 0.00 | 0.00 | 0.00 | 79 | 1003.4 |
| 20260505113050 | 21 | 205 | 9.7 | 16.1 | 0.00 | 0.00 | 0.00 | 79 | 1003.5 |
| 20260505112546 | 21 | 198 | 11.3 | 12.9 | 0.00 | 0.00 | 0.00 | 79 | 1003.4 |
| 20260505112045 | 21 | 191 | 12.9 | 16.1 | 0.00 | 0.00 | 0.00 | 79 | 1003.4 |
| 20260505111538 | 21 | 174 | 9.7 | 12.9 | 0.00 | 0.00 | 0.00 | 79 | 1003.6 |
| 20260505111035 | 21 | 296 | 8.0 | 11.3 | 0.00 | 0.00 | 0.00 | 79 | 1003.6 |
| 20260505110531 | 21 | 190 | 9.7 | 12.9 | 0.00 | 0.00 | 0.00 | 79 | 1003.4 |
| 20260505102004 | 21 | 184 | 11.3 | 17.7 | 0.00 | 0.00 | 0.00 | 78 | 1003.5 |
| 20260505101501 | 21 | 217 | 9.7 | 16.1 | 0.00 | 0.00 | 0.00 | 78 | 1003.6 |
| 20260505100958 | 21 | 213 | 8.0 | 12.9 | 0.00 | 0.00 | 0.00 | 78 | 1003.8 |
| 20260505100455 | 21 | 188 | 9.7 | 12.9 | 0.00 | 0.00 | 0.00 | 77 | 1003.6 |
| 20260505095951 | 21 | 185 | 14.5 | 20.9 | 0.00 | 0.00 | 0.00 | 77 | 1003.6 |
| 20260505095447 | 21 | 217 | 11.3 | 12.9 | 0.00 | 0.00 | 0.00 | 77 | 1003.5 |
| 20260505094944 | 21 | 157 | 9.7 | 14.5 | 0.00 | 0.00 | 0.00 | 77 | 1003.7 |
| 20260505094441 | 21 | 163 | 9.7 | 12.9 | 0.00 | 0.00 | 0.00 | 77 | 1003.6 |
| 20260505093937 | 21 | 186 | 6.4 | 6.4 | 0.00 | 0.00 | 0.00 | 76 | 1003.6 |
| 20260505093434 | 22 | 191 | 8.0 | 11.3 | 0.00 | 0.00 | 0.00 | 76 | 1003.5 |
| 20260505092931 | 22 | 145 | 14.5 | 16.1 | 0.00 | 0.00 | 0.00 | 76 | 1003.6 |